Home   Weather   Narvik   Past weeks

Flag for Norway Past Weather in Narvik, Norway — Yesterday and Last 2 Weeks

Now
23 °F

Partly cloudy.


Feels Like: 18 °F
Forecast: 18 / 29 °F
Wind: 3 mph from North

Location: Evenes

Current Time: Dec 3, 2016 at 3:21:10 am

Latest Report: Dec 3, 2016 at 2:50 am


Visibility: N/A

Pressure: 30.01 "Hg

Humidity: 93%

Dew Point: 21 °F

Location of NarvikLocation

Past Weather in Narvik — Graph

°F

Narvik Temperature Yesterday

Maximum temperature yesterday: 28 °F (at 12:50 am)
Minimum temperature yesterday: 23 °F (at 11:50 am)
Average temperature yesterday: 26 °F

High & Low Weather Summary for the Past Weeks

 TemperatureHumidityPressure
High41 °F (Nov 20, 9:20 am)100% (Nov 19, 7:50 pm)30.12 "Hg (Nov 19, 7:50 pm)
Low23 °F (Dec 2, 11:50 am)52% (Nov 18, 7:50 pm)29.03 "Hg (Nov 19, 10:20 am)
Average33 °F86%29.56 "Hg
* Reported Nov 18 1:50 am — Dec 3 1:50 am, Narvik, Weather by CustomWeather, © 2016

Note: Actual official high and low records may vary slightly from our data, if they occured in-between our weather recording intervals... More about our weather records

Advertising

Narvik Weather History for the Previous 24 Hours

Scroll right to see more
 ConditionsComfort  
Time TempWeatherWind HumidityBarometerVisibility
1:50 am
Sat, Dec 3
25 °FMostly cloudy.3 mph93%30.01 "HgN/A
1:20 am25 °FMostly cloudy.3 mph93%30.01 "HgN/A
12:50 am23 °FPassing clouds.6 mph100%30.01 "HgN/A
12:20 am23 °FPassing clouds.3 mph100%30.01 "HgN/A
11:50 pm
Fri, Dec 2
25 °FLight snow. Ice fog.3 mph93%30.01 "Hg2 mi
11:20 pm25 °FSnow. Ice fog.No wind93%30.01 "Hg1 mi
10:50 pm23 °FMostly cloudy.2 mph93%29.98 "HgN/A
10:20 pm23 °FMostly cloudy.2 mph93%29.98 "HgN/A
9:50 pm23 °FPassing clouds.2 mph93%29.98 "HgN/A
8:50 pm23 °FPartly cloudy.No wind100%29.98 "HgN/A
7:50 pm23 °FPassing clouds.2 mph93%29.95 "HgN/A
6:50 pm25 °FPassing clouds.1 mph93%29.95 "HgN/A
6:20 pm27 °FPassing clouds.2 mph93%29.95 "HgN/A
5:50 pm28 °FPassing clouds.No wind86%29.95 "HgN/A
4:50 pm28 °FLight snow. Passing clouds.3 mph93%29.92 "HgN/A
3:50 pm28 °FLight snow. Passing clouds.6 mph93%29.92 "HgN/A
3:20 pm28 °FLight snow. Partly cloudy.9 mph93%29.89 "HgN/A
2:50 pm28 °FLight snow. Partly cloudy.8 mph100%29.89 "Hg4 mi
1:50 pm28 °FLight snow. Ice fog.5 mph100%29.89 "Hg1 mi
12:50 pm25 °FLight snow. Overcast.2 mph100%29.89 "Hg1 mi
11:50 am23 °FBroken clouds.1 mph100%29.89 "HgN/A
10:50 am25 °FPartly cloudy.2 mph100%29.89 "HgN/A
9:50 am27 °FPartly cloudy.2 mph100%29.89 "HgN/A
8:50 am27 °FLight mixture of precip. Partly cloudy.3 mph100%29.89 "HgN/A
8:20 am27 °FSnow showers. Ice fog.2 mph100%29.89 "Hg2 mi
7:50 am27 °FPassing clouds.No wind93%29.89 "HgN/A
6:50 am27 °FSnow flurries. Partly cloudy.3 mph100%29.86 "HgN/A
5:50 am27 °FPassing clouds.2 mph100%29.86 "HgN/A
5:20 am27 °FPartly cloudy.5 mph100%29.83 "HgN/A
4:50 am27 °FLight snow. Low clouds.No wind100%29.83 "HgN/A
4:20 am25 °FMostly cloudy.2 mph100%29.83 "HgN/A
3:50 am27 °FPartly cloudy.3 mph93%29.83 "HgN/A
3:20 am27 °FIce fog.No wind93%29.80 "HgN/A
Weather by CustomWeather, © 2016

See weather overviewHow to use our weather pages